Terminal Aerodrome Forecast
Issued by NWS

Home | Current Version | Previous Version | Text Only | Print | Product List | Glossary On
Versions: 1 2 3 4 5 6 7 8 9 10 11 12 13 14 15 16 17 18 19 20 21
000
FTUS46 KLOX 272200 AAC
TAFPMD
TAF AMD
KPMD 272208Z 2722/2818 00000KT P6SM SCT024 OVC030
      TEMPO 2722/2723 BKN024
     FM272300 29008KT P6SM SCT040
     FM280300 VRB05KT P6SM SCT200=

USA.gov is the U.S. government's official web portal to all federal, state and local government web resources and services.